Dean International
Flight School

Career Spotlight

Mika

Mika

Congratulations to Mika from Khazakstan. She recently sent us this photo of her flying an Airbus airliner.

More...
Mika's Success Story
close

Congratulations to Mika from Khazakstan. She recently sent us this photo of her flying an Airbus airliner.

Mario

Mario

My dreams could not have been realized if I wouldn't have been part of the Dean International family.

More...
Mario's Success Story
close

"My dreams could not have been realized if I wouldn't have been part of the Dean International family. Thank you Robert, thanks to all my co-workers, and thanks to all of my students!"

Fernando

Fernando

I am now working as a First Officer at TACA and am enjoying every moment of it.

More...
Fernando's Success Story
close

"Will never forget my time of flight training at Dean International. I am now working as a First Officer at TACA and am enjoying every moment of it."

Alvaro

Alvaro

Because of the flight time I was able to built while instructing, I got the experience needed to apply to an airline in Colombia.

More...
Alvaro's Success Story
close

Dean alumnus Alvaro Londoño currently flies with Tampa Cargo. He says of his experience at Dean: "I want to take this opportunity to thank you for giving me the chance to build my experience and expand my knowledge in Dean International. Because of the flight time I was able to built flight instructing, I got the experience needed to apply to an airline in Colombia."

Ralph

Ralph

Every Aruban student of Dean International has made it into Tiara Air Aruba, that is very nice.

More...
Ralph's Success Story
close

"Next to me is my Co-Pilot, Elison. This picture was taken on our first flight together, which was almost exactly 5 years after I finished at Dean International. [...] Every Aruban student of Dean International has made it into Tiara Air Aruba. [...] The future looks bright here in Aruba."

Rohaan

Rohaan

The [..] staff will all work diligently to help you finish your certificates as safely and efficiently as possible.

More...
Rohaan's Success Story
close

After receiving very hard times from other flight schools [...], I came to Dean International where Robert Dean personally sat down with me and gave me a financial and chronological look into how much remained to finish my private pilot certificate. Through his hard efforts as an instructor and mentor, I was able to finish my private pilot certificate within one week.

Welcome to Dean International

In over two decades, Dean International has educated over 7,000 pilots from all over the world, including over 1,000 students from India alone. By offering a great training experience, a friendly service staff, an ample variety of aircraft, and by improving constantly, we have become one of the largest, most prestigious FAA 141-approved flight schools in North America. Located in Miami, Florida, USA, our flight school offers an ideal location for year-round, "learn to fly" weather, flight training. Dean International is not only well-equipped to provide services to professional trainees but also caters to General Aviation renters. Visit or contact our headquarters at Kendall-Tamiami Executive Airport located in Miami, FL today to learn more about us, or simply read more about our programs if you are an international student interested in joining our school.

Local Airport Information
TAF FOR KTMB (Issued: Fri, August 22nd 2014 6:39 AM UTC)
TAF KTMB 220537Z 2206/2306 00000KT P6SM VCTS FEW025CB SCT250
      FM221500 10008KT P6SM VCSH SCT030 SCT250
      FM230000 08004KT P6SM SKC
     
METAR FOR KTMB (Issued: Fri, August 22nd 2014 4:53 AM UTC):
KTMB 220453Z AUTO 00000KT 10SM CLR 27/24 A3010 RMK AO2 SLP191 T02670244 403440256

This weather information is provided by the National Weather Service.
It is automatically refreshed every three minutes.
TAF FOR KHST (Issued: Fri, August 22nd 2014 12:27 AM UTC)
TAF KHST 2200/2306 09004KT 9999 FEW040 QNH3002INS
      BECMG 2215/2216 12009KT 9999 VCTS BKN030CB BKN200 QNH3007INS
      TEMPO 2216/2221 8000 -TSRA BKN025CB
      BECMG 2221/2222 10006KT 9999 NSW FEW035 QNH3003INS TX32/2216Z TN26/2210Z
     
METAR FOR KHST (Issued: Fri, August 22nd 2014 4:58 AM UTC):
KHST 220458Z AUTO 00000KT 10SM CLR 28/24 A3010 RMK AO2 LTG DSNT NE SLP196 T02760240 403320257

This weather information is provided by the National Weather Service.
It is automatically refreshed every three minutes.
TAF FOR KOPF (Issued: Fri, August 22nd 2014 6:39 AM UTC)
TAF KOPF 220537Z 2206/2306 VRB03KT P6SM VCTS FEW025CB SCT250
      FM221500 10008KT P6SM VCSH SCT030 SCT250
      FM230000 09006KT P6SM SCT250
     
METAR FOR KOPF (Issued: Fri, August 22nd 2014 4:53 AM UTC):
KOPF 220453Z AUTO 04003KT 10SM CLR 29/24 A3011 RMK AO2 SLP195 T02940244 403390267

This weather information is provided by the National Weather Service.
It is automatically refreshed every three minutes.
TAF FOR KMIA (Issued: Fri, August 22nd 2014 6:42 AM UTC)
TAF KMIA 220537Z 2206/2306 VRB03KT P6SM VCTS FEW025CB SCT250
      FM221500 10008KT P6SM VCSH SCT030 SCT250
      FM230000 09006KT P6SM SCT250
     
METAR FOR KMIA (Issued: Fri, August 22nd 2014 4:53 AM UTC):
KMIA 220453Z 09004KT 10SM FEW025 SCT250 29/24 A3010 RMK AO2 SLP193 T02940239 403330272

This weather information is provided by the National Weather Service.
It is automatically refreshed every three minutes.
Design by Ariel Llizo
© Dean International Inc. 2012